{"data":{"norad_id":60193,"intl_designator":"2024-124L","name":"STARLINK-11172 [DTC]","alt_names":[],"object_type":"PAYLOAD","status":"ACTIVE","operator":null,"country":"US","launch_date":"2024-07-03","launch_site_code":"AFETR","launch_vehicle":null,"mission":null,"orbit_class":"UNKNOWN","rcs_meters":null,"size_class":null,"mass_kg":null,"dimensions":null,"purposes":["comms"],"wikipedia_slug":null,"has_3d_model":false,"image_url":null,"decayed_at":null,"tle_current":{"epoch":"2026-09-21T17:34:41.291904Z","epoch_age_seconds":75264,"freshness":"FRESH","line1":"1 60193U 24124L   26264.73242236 -.00000678  00000+0 -73809-6 0  9996","line2":"2 60193  53.1597 274.9180 0001414  76.5514 283.5662 15.69706168127326","mean_motion":15.69706168,"eccentricity":0.0001414,"inclination_deg":53.1597,"raan_deg":274.918,"arg_perigee_deg":76.5514,"mean_anomaly_deg":283.5662,"bstar":-7.3809e-7,"rev_number":12732,"period_min":91.736914166219,"perigee_km":358.78498067441,"apogee_km":360.69045164414,"semimajor_km":6737.8747161593,"source":"CELESTRAK","updated_at":"2026-09-22T09:00:49.183712Z"}}}